Location: Bayshore Village Mobile Home Park
(26.6945°N, 81.8642°W)
Time: 21:44:28
(UTC+00:00)

ARIANE 5 R/B - Pass Details

Date: 17 June 2021
Orbit: 748 x 795 km, 98.7° (Epoch: 31 July)

Event Time Altitude Azimuth Distance (km) Brightness Sun altitude
Rises 09:45:35 0° 346° (NNW) 3,194 6.0 -10.2°
Reaches altitude 10° 09:49:06 10° 319° (NW) 2,269 4.9 -9.6°
Maximum altitude 09:51:22 13° 292° (WNW) 2,056 4.4 -9.1°
Drops below altitude 10° 09:53:37 10° 265° (W) 2,271 4.4 -8.7°
Enters shadow 09:54:11 - 259° (W) 2,382 4.5 -8.6°
